Regional Weather Roundup
Issued by NWS Green Bay, WI

Home | Current Version | Previous Version | Graphics & Text | Print | Product List | Glossary Off
Versions: 1 2 3 4 5 6 7 8 9 10 11 12 13 14 15 16 17 18 19 20 21 22 23 24 25 26 27 28 29 30 31 32 33 34 35 36 37 38 39 40 41 42 43 44 45 46 47 48 49 50

000
ASUS43 KGRB 020300
RWRGRB

NORTH-CENTRAL AND NORTHEAST WISCONSIN REGIONAL WEATHER ROUNDUP
NATIONAL WEATHER SERVICE GREEN BAY WI
1000 PM CDT SAT AUG 01 2015

WIZ005-009-010>012-018-019-020400-
NORTH CENTRAL WISCONSIN

CITY           SKY/WX    TMP DP  RH WIND       PRES   REMARKS
IRONWOOD       PTCLDY    68  55  64 SW8       29.74F
MANITOWISH WTR NOT AVBL
ARBOR VITAE    NOT AVBL
EAGLE RIVER    NOT AVBL
LAND O LAKES   NOT AVBL
RHINELANDER    PTCLDY    62  55  77 SW3       29.83F
PHILLIPS       CLEAR     66  57  73 SW3       29.81S
ANTIGO         NOT AVBL
TOMAHAWK       NOT AVBL
MERRILL        NOT AVBL
$$

WIZ013-073-020400-
NORTHEAST WISCONSIN

CITY           SKY/WX    TMP DP  RH WIND       PRES   REMARKS
IRON MOUNTAIN  CLEAR     64  54  69 CALM      29.79S
MARINETTE      CLEAR     70  52  52 W3        29.80S
$$

WIZ017-030-035>037-045-020400-
CENTRAL WISCONSIN

CITY           SKY/WX    TMP DP  RH WIND       PRES   REMARKS
MEDFORD        NOT AVBL
WAUSAU         CLEAR     70  59  68 S3        29.82F
MOSINEE        CLEAR     82  57  42 CALM      29.85S
MARSHFIELD     CLEAR     67  59  75 CALM      29.85R
WISC RAPIDS    CLEAR     66  57  72 CALM      29.86R
STEVENS POINT  NOT AVBL
WAUPACA        NOT AVBL
SHAWANO        NOT AVBL
CLINTONVILLE   CLEAR     64  55  72 CALM      29.83S
$$

WIZ038-039-048-051-020400-
FOX VALLEY

CITY           SKY/WX    TMP DP  RH WIND       PRES   REMARKS
NWS GREEN BAY  CLEAR     64  58  80 SW6       29.83S
APPLETON       PTCLDY    70  52  52 VRB3      29.85F
OSHKOSH        CLEAR     66  57  72 SW3       29.85R
FOND DU LAC    CLEAR     71  60  68 SW5       29.86S
$$

WIZ022-050-052-020400-
EAST CENTRAL WISCONSIN

CITY           SKY/WX    TMP DP  RH WIND       PRES   REMARKS
STURGEON BAY   CLEAR     66  54  63 S7        29.84S
MANITOWOC      NOT AVBL
SHEBOYGAN      CLEAR     66  59  78 CALM      29.86S
$$

LMZ563-521-522-541>543-020400-
LAKESHORE

STATION/POSITION TIME  TEMP    WIND        PRES    VSBY  WAVE
                       AIR SEA DIR/SP/G                  HT/PER
                 (UTC) (F)     (DEG/KT/KT) (MB)    (MI)  (FT/S)
SHEBOYGAN LKSHOR 0200   73     180/  7/  8 1011.0R
KEWAUNEE LKSHORE 0200   73      CALM  /  2 1009.8R
ALGOMA MARINA    0212          230/  6/  7   N/A
NORTHPORT PIER   0200   71      CALM  /  3 1009.1S
N MID LAKE BUOY  0150   71 69  210/ 12/ 16 1008.5S         2/ 4
SISTER BAY LKSHO 0215   72     170/  9/ 11   N/A
CHAMBERS ISLAND  0200   68     180/  2/  4 1009.1S
MENOMINEE LKSHOR 0200   74     220/  5/  6 1010.0F
$$



USA.gov is the U.S. government's official web portal to all federal, state and local government web resources and services.